Simultaneous Nadir Overpasses (SNOs) Predictions

Prediction of SNOs between GOES-16 and NOAA-21 Satellite Orbit:

Table of predicted SNOs for the next 14.0 days since TLE Epoch: 6/24/2023
Index Date Time (GOES-16) GOES-16 Lat,Lon NOAA-21 Lat,Lon Distance(km) Time Diff (sec)
1 06/25/2023 06:40:58 -0.02, -75.20 0.96, -79.48 488.46 80
2 06/26/2023 06:24:53 -0.02, -75.21 -0.09, -74.96 28.81 80
3 06/28/2023 18:25:24 0.02, -75.23 -0.07, -75.73 57.02 80
4 06/29/2023 18:09:19 0.02, -75.24 0.92, -71.20 460.44 80
5 07/01/2023 06:28:26 -0.03, -75.25 0.23, -76.47 138.75 80
6 07/02/2023 06:12:21 -0.03, -75.26 -0.77, -71.93 378.68 80
7 07/03/2023 18:31:36 0.03, -75.27 -0.43, -77.23 224.34 80
8 07/04/2023 18:15:31 0.03, -75.28 0.63, -72.71 293.40 80
9 07/06/2023 06:34:38 -0.04, -75.30 0.58, -77.97 305.09 80
10 07/07/2023 06:18:32 -0.03, -75.31 -0.43, -73.44 213.19 80
